Location: Wiler
(46.4041°N, 7.7840°E)
Time: 16:36:08
(UTC+00:00)

Cosmos 1190 Rocket - Pass Details

Date: 09 April 2020
Orbit: 757 x 779 km, 74.1° (Epoch: 03 June)

Event Time Altitude Azimuth Distance (km) Brightness Sun altitude
Rises 18:37:02 0° 179° (S) 3,247 7.1 -5.5°
Reaches altitude 10° 18:39:31 10° 172° (S) 2,322 6.2 -5.9°
Maximum altitude 18:44:26 41° 103° (ESE) 1,115 4.4 -6.7°
Drops below altitude 10° 18:49:22 10° 35° (NE) 2,327 6.4 -7.5°
Sets 18:51:51 0° 28° (NNE) 3,255 7.2 -7.9°
